Regional Weather Roundup
Issued by NWS

Home | Current Version | Previous Version | Text Only | Print | Product List | Glossary Off
Versions: 1 2 3 4 5 6 7 8 9 10 11 12 13 14 15 16 17 18 19 20 21 22 23 24 25 26 27 28 29 30 31 32 33 34 35 36 37 38 39 40 41 42 43 44 45 46 47 48 49 50

000
ASUS45 KTFX 141804
RWRMT
MONTANA HOURLY WEATHER ROUNDUP
NATIONAL WEATHER SERVICE GREAT FALLS MT
1204 PM MDT SUN SEP 14 2014

NOTE: "FAIR" INDICATES FEW OR NO CLOUDS BELOW 12000 FEET WITH NO
SIGNIFICANT WEATHER AND/OR OBSTRUCTIONS TO VISIBILITY.

* THESE STATIONS ARE NOT UNDER NWS QUALITY CONTROL. THEY DO NOT
   REPORT WEATHER SUCH AS PRECIPITATION OR FOG.

MTZ001>007-043-141900-
WEST OF THE DIVIDE
CITY           SKY/WX    TMP DP  RH WIND       PRES   REMARKS
KALISPELL      SUNNY     57  37  47 NE8       30.10F
MISSOULA       SUNNY     57  34  42 CALM      30.11F
BUTTE          PTCLDY    55  34  45 CALM      30.14S
MULLAN PASS    SUNNY     54  32  43 VRB3      30.14R
* LINCOLN      N/A       52  35  52 SW2        N/A
* LOOKOUT PASS N/A       57  33  40 S9         N/A
* POLSON       N/A       59  40  50 NE3        N/A
* RONAN APT    SUNNY     61  37  41 N/A        N/A
* SEELEY LAKE  N/A       56  34  44 S3         N/A
* THOMP F APT  SUNNY     65  28  25 S7G12      N/A
$$

MTZ008-052>055-141900-
SOUTHWEST MONTANA
CITY           SKY/WX    TMP DP  RH WIND       PRES   REMARKS
BOZEMAN        PTCLDY    54  36  51 CALM      30.13S
DILLON         PTCLDY    57  34  42 VRB3      30.11F
W YELLOWSTONE  SUNNY     59  32  36 CALM      30.16F
* THREE FORKS  PTCLDY    55  55 100 N/A        N/A
* BOULDER HILL N/A       54  31  42 NE7        N/A
* MONIDA PASS  N/A       64  23  21 N4         N/A
* RAYNOLDS PAS N/A       64  40  41 SE7G14     N/A
* WHITEHALL    N/A       53  35  51 SW4        N/A
* WISE RIVER   N/A       51  33  50 W5         N/A
$$

MTZ009>010-012-014-046-048-049-054-141900-
EAST SLOPES AND CENTRAL MONTANA
CITY           SKY/WX    TMP DP  RH WIND       PRES   REMARKS
CUT BANK       SUNNY     57  36  46 VRB3      30.11F
GREAT FALLS    SUNNY     55  36  49 SW6       30.11S
HELENA         SUNNY     55  37  51 CALM      30.12F
MALMSTROM AFB  SUNNY     54  39  57 W7        30.13S
* CONRAD       SUNNY     55  43  64 N/A        N/A
* EAST GLACIER N/A       56  29  36 SE6G11     N/A
* MONARCH      N/A       51  29  43 N8         N/A
* PENDROY      N/A       59  35  41 SW2        N/A
* ROGERS PASS  N/A       55  29  37 S4         N/A
* SAINT MARY   N/A       59  35  41 NE5        N/A
* SWEET GRASS  N/A       53  36  53 S9         N/A
$$

MTZ011-013-016-021-035-040-045-047-050-051-141900-
NORTH CENTRAL MONTANA
CITY           SKY/WX    TMP DP  RH WIND       PRES   REMARKS
HAVRE          SUNNY     57  37  47 CALM      30.12S
LEWISTOWN      SUNNY     55  37  51 VRB3      30.11S
* CHESTER      N/A       54  38  55 SE5G12     N/A
* DENTON       N/A       54  37  53 NW8        N/A
* JUDITH GAP   N/A       53  33  47 VRB14      N/A
* LOMA         N/A       54  39  57 E3         N/A
$$

MTZ017>020-022>027-061-062-141900-
NORTHEAST MONTANA
CITY           SKY/WX    TMP DP  RH WIND       PRES   REMARKS
GLASGOW        CLOUDY    52  34  50 SE10      30.16F
GLENDIVE       CLOUDY    52  36  55 E7        30.19F
JORDAN         PTCLDY    55  37  51 SE7       30.13F
SIDNEY         PTSUNNY   54  34  47 CALM      30.20F
WOLF POINT     PTSUNNY   55  34  45 VRB6      30.17F
* BEAVER HILL  N/A       53  30  41 NE9        N/A
* CIRCLE       N/A       51  38  61 E3G8       N/A
* LINDSAY DVD  N/A       50  34  54 E13        N/A
* NAVAJO       N/A       53  31  43 S6         N/A
* SACO         N/A       52  39  61 SE8        N/A
$$

MTZ028>042-056>058-141900-
SOUTHCENTRAL AND SOUTHEAST MONTANA
CITY           SKY/WX    TMP DP  RH WIND       PRES   REMARKS
BAKER          CLOUDY    54 N/A N/A SE10G17   30.16F
BILLINGS       SUNNY     54  37  53 CALM      30.11S
LIVINGSTON     PTCLDY    59  37  44 W7        30.09F
MILES CITY     SUNNY     57  34  42 SE10      30.12F
* LAUREL APT   PTCLDY    54  36  51 N/A        N/A
* ROUNDUP APT  SUNNY     54  37  53 N/A        N/A
* ALZADA       N/A       50  36  59 E10        N/A
* HYSHAM       N/A       58  33  39 SE5        N/A
* LAME DEER    N/A       51  36  57 SE7        N/A
* REED POINT   N/A       58  38  47 NE1G6      N/A
* ROSCOE HILL  N/A       50  31  48 NE3        N/A
$$

REGIONAL REPORTS...DAKOTAS
CITY           SKY/WX    TMP DP  RH WIND       PRES   REMARKS
WILLISTON      SUNNY     54  32  43 CALM      30.19S
DICKINSON      PTCLDY    52  36  55 E5        30.16F
BEACH          N/A       52  30  43 SE8       30.18F
CROSBY         SUNNY     52  32  47 W3        30.18F
TIOGA          SUNNY     52  32  47 NW8       30.20F
WATFORD CITY   SUNNY     54  32  43 SE3       30.16F
BISMARCK       PTSUNNY   55  39  55 VRB3      30.19F
GRAND FORKS    CLOUDY    54  43  67 NW9       30.11R
FARGO          PTSUNNY   57  45  64 NW13      30.12S
RAPID CITY     CLOUDY    50  36  59 SE8       30.15F
$$

REGIONAL REPORTS...WYOMING/IDAHO/WASHINGTON
CITY           SKY/WX    TMP DP  RH WIND       PRES   REMARKS
GILLETTE       PTCLDY    55  39  55 SE12      30.09S
SHERIDAN       SUNNY     55  39  55 VRB5      30.10S
CODY           SUNNY     55  37  51 NE7       30.09S
YELLOWSTONE LA SUNNY     63  21  20 VRB6      30.22F
SALMON         SUNNY     59  32  36 CALM      30.08F
MULLAN PASS    SUNNY     54  32  43 VRB3      30.14S
SAND POINT     SUNNY     63  37  38 NE10G16   30.06F
SPOKANE        SUNNY     63  36  37 NE6       30.04S

$$



USA.gov is the U.S. government's official web portal to all federal, state and local government web resources and services.